| time (UTC) | temp F | wind direction | speed MPH | gust MPH | rain 1hr in | rain 24hr in | rain mn in | humidity % | barometer mb |
| 20260505124518 | 57 | 0.0 | 0.0 | 0.00 | 0.00 | 0.00 | 87 | 1030.3 | |
| 20260505123518 | 57 | 0.0 | 0.0 | 0.00 | 0.00 | 0.00 | 87 | 1030.2 | |
| 20260505122538 | 57 | 0.0 | 0.0 | 0.00 | 0.00 | 0.00 | 87 | 1030.2 | |
| 20260505121518 | 57 | 0.0 | 0.0 | 0.00 | 0.00 | 0.00 | 87 | 1030.2 | |
| 20260505120538 | 57 | 0.0 | 0.0 | 0.00 | 0.00 | 0.00 | 87 | 1030.2 | |
| 20260505115538 | 57 | 0.0 | 0.0 | 0.00 | 0.00 | 0.00 | 86 | 1030.2 | |
| 20260505114538 | 58 | 0.0 | 0.0 | 0.00 | 0.00 | 0.00 | 86 | 1030.1 | |
| 20260505113518 | 58 | 0.0 | 0.0 | 0.00 | 0.00 | 0.00 | 86 | 1030.0 | |
| 20260505112538 | 58 | 0.0 | 0.0 | 0.00 | 0.00 | 0.00 | 85 | 1030.0 | |
| 20260505111518 | 58 | 0.0 | 0.0 | 0.00 | 0.00 | 0.00 | 85 | 1029.9 | |
| 20260505110518 | 58 | 0.0 | 0.0 | 0.00 | 0.00 | 0.00 | 85 | 1029.9 | |
| 20260505101518 | 59 | 0.0 | 0.0 | 0.00 | 0.00 | 0.00 | 85 | 1029.5 | |
| 20260505100518 | 59 | 0.0 | 0.0 | 0.00 | 0.00 | 0.00 | 85 | 1029.5 | |
| 20260505095518 | 59 | 0.0 | 1.0 | 0.00 | 0.00 | 0.00 | 84 | 1029.4 | |
| 20260505094517 | 59 | 0.0 | 1.0 | 0.00 | 0.00 | 0.00 | 84 | 1029.3 | |
| 20260505093518 | 59 | 0.0 | 1.0 | 0.00 | 0.00 | 0.00 | 84 | 1029.3 | |
| 20260505092518 | 59 | 0.0 | 1.0 | 0.00 | 0.00 | 0.00 | 84 | 1029.3 | |
| 20260505091518 | 59 | 0.0 | 1.0 | 0.00 | 0.00 | 0.00 | 84 | 1029.3 | |
| 20260505090518 | 59 | 0.0 | 0.0 | 0.00 | 0.00 | 0.00 | 84 | 1029.1 | |
| 20260505085518 | 59 | 0.0 | 0.0 | 0.00 | 0.00 | 0.00 | 84 | 1029.1 | |
| 20260505084518 | 59 | 0.0 | 2.0 | 0.00 | 0.00 | 0.00 | 84 | 1029.0 | |
| 20260505083518 | 59 | 113 | 1.0 | 3.0 | 0.00 | 0.00 | 0.00 | 84 | 1028.9 |
| 20260505082517 | 59 | 0.0 | 2.0 | 0.00 | 0.00 | 0.00 | 85 | 1029.0 | |
| 20260505081517 | 59 | 0.0 | 1.0 | 0.00 | 0.00 | 0.00 | 85 | 1028.9 | |
| 20260505080518 | 59 | 0.0 | 1.0 | 0.00 | 0.00 | 0.00 | 85 | 1028.9 | |
| 20260505075517 | 59 | 0.0 | 1.0 | 0.00 | 0.00 | 0.00 | 86 | 1028.8 | |
| 20260505074517 | 59 | 0.0 | 2.0 | 0.00 | 0.00 | 0.00 | 85 | 1028.9 | |
| 20260505073517 | 60 | 90 | 1.0 | 4.0 | 0.00 | 0.00 | 0.00 | 84 | 1028.8 |
| 20260505072557 | 60 | 135 | 1.0 | 3.0 | 0.00 | 0.00 | 0.00 | 84 | 1028.6 |
| 20260505071517 | 60 | 90 | 1.0 | 4.0 | 0.00 | 0.00 | 0.00 | 84 | 1028.5 |
| 20260505070517 | 60 | 90 | 1.0 | 5.0 | 0.00 | 0.00 | 0.00 | 84 | 1028.3 |
| 20260505065517 | 59 | 90 | 1.0 | 4.0 | 0.00 | 0.00 | 0.00 | 85 | 1028.3 |
| 20260505064517 | 59 | 113 | 2.0 | 4.0 | 0.00 | 0.00 | 0.00 | 86 | 1028.2 |
| 20260505063517 | 59 | 113 | 1.0 | 6.0 | 0.00 | 0.00 | 0.00 | 87 | 1028.3 |
| 20260505062517 | 59 | 113 | 2.0 | 5.0 | 0.00 | 0.00 | 0.00 | 87 | 1028.3 |
| 20260505061517 | 59 | 113 | 3.0 | 7.0 | 0.00 | 0.00 | 0.00 | 86 | 1028.3 |
| 20260505060539 | 61 | 90 | 3.0 | 9.0 | 0.00 | 0.00 | 0.00 | 82 | 1028.3 |
| 20260505055537 | 63 | 225 | 1.0 | 3.0 | 0.00 | 0.00 | 0.00 | 78 | 1028.1 |
| 20260505054519 | 62 | 225 | 1.0 | 4.0 | 0.00 | 0.00 | 0.00 | 78 | 1028.1 |
| 20260505053519 | 62 | 135 | 1.0 | 4.0 | 0.00 | 0.00 | 0.00 | 78 | 1028.2 |
| 20260505052519 | 62 | 270 | 1.0 | 3.0 | 0.00 | 0.00 | 0.00 | 78 | 1028.2 |
| 20260505051519 | 62 | 0.0 | 2.0 | 0.00 | 0.00 | 0.00 | 79 | 1028.2 | |
| 20260505050539 | 62 | 0.0 | 2.0 | 0.00 | 0.00 | 0.00 | 79 | 1028.2 | |
| 20260505041519 | 61 | 225 | 2.0 | 5.0 | 0.00 | 0.00 | 0.00 | 81 | 1028.9 |
| 20260505040519 | 61 | 270 | 1.0 | 3.0 | 0.00 | 0.00 | 0.00 | 82 | 1029.1 |
| 20260505035519 | 60 | 270 | 1.0 | 3.0 | 0.00 | 0.00 | 0.00 | 83 | 1029.1 |
| 20260505034519 | 59 | 0.0 | 1.0 | 0.00 | 0.00 | 0.00 | 85 | 1029.3 | |
| 20260505033519 | 59 | 0.0 | 1.0 | 0.00 | 0.00 | 0.00 | 86 | 1029.5 | |
| 20260505032539 | 59 | 0.0 | 2.0 | 0.00 | 0.00 | 0.00 | 84 | 1029.5 | |
| 20260505031519 | 59 | 225 | 2.0 | 5.0 | 0.00 | 0.00 | 0.00 | 82 | 1029.5 |
| 20260505030518 | 60 | 248 | 1.0 | 5.0 | 0.00 | 0.00 | 0.00 | 81 | 1029.5 |
| 20260505025519 | 60 | 0.0 | 1.0 | 0.00 | 0.00 | 0.00 | 79 | 1029.5 | |
| 20260505024519 | 60 | 0.0 | 1.0 | 0.00 | 0.00 | 0.00 | 79 | 1029.5 | |
| 20260505023559 | 60 | 0.0 | 1.0 | 0.00 | 0.00 | 0.00 | 80 | 1029.6 | |
| 20260505022519 | 59 | 248 | 2.0 | 5.0 | 0.00 | 0.00 | 0.00 | 80 | 1029.7 |
| 20260505021518 | 60 | 248 | 1.0 | 5.0 | 0.00 | 0.00 | 0.00 | 81 | 1029.7 |
| 20260505020519 | 60 | 225 | 2.0 | 4.0 | 0.00 | 0.00 | 0.00 | 80 | 1029.7 |
| 20260505015518 | 60 | 248 | 2.0 | 4.0 | 0.00 | 0.00 | 0.00 | 80 | 1029.8 |
| 20260505014519 | 60 | 203 | 1.0 | 2.0 | 0.00 | 0.00 | 0.00 | 83 | 1029.6 |
| 20260505013518 | 59 | 270 | 1.0 | 3.0 | 0.00 | 0.00 | 0.00 | 84 | 1029.6 |
| 20260505012518 | 59 | 203 | 1.0 | 5.0 | 0.00 | 0.00 | 0.00 | 86 | 1029.5 |
| 20260505011519 | 58 | 225 | 1.0 | 3.0 | 0.00 | 0.00 | 0.00 | 88 | 1029.5 |
| 20260505010518 | 58 | 203 | 1.0 | 3.0 | 0.00 | 0.00 | 0.00 | 89 | 1029.5 |
| 20260505005518 | 57 | 113 | 1.0 | 2.0 | 0.00 | 0.00 | 0.00 | 90 | 1029.5 |
| 20260505004519 | 57 | 0.0 | 1.0 | 0.00 | 0.00 | 0.00 | 91 | 1029.4 | |
| 20260505003518 | 57 | 90 | 1.0 | 2.0 | 0.00 | 0.00 | 0.00 | 92 | 1029.4 |
| 20260505002518 | 56 | 0.0 | 0.0 | 0.00 | 0.00 | 0.00 | 92 | 1029.3 | |
| 20260505001518 | 56 | 0.0 | 1.0 | 0.00 | 0.00 | 0.00 | 93 | 1029.3 | |
| 20260505000518 | 56 | 0.0 | 1.0 | 0.00 | 0.00 | 0.00 | 93 | 1029.2 | |
| 20260504235519 | 55 | 0.0 | 0.0 | 0.00 | 0.00 | 0.00 | 93 | 1029.0 | |
| 20260504234518 | 55 | 0.0 | 1.0 | 0.00 | 0.00 | 0.00 | 93 | 1028.9 | |
| 20260504233518 | 55 | 0.0 | 0.0 | 0.00 | 0.00 | 0.00 | 93 | 1028.8 | |
| 20260504232518 | 55 | 0.0 | 0.0 | 0.00 | 0.00 | 0.00 | 93 | 1028.8 | |
| 20260504231518 | 55 | 0.0 | 0.0 | 0.00 | 0.00 | 0.00 | 93 | 1028.8 | |
| 20260504230518 | 54 | 0.0 | 0.0 | 0.00 | 0.00 | 0.00 | 93 | 1028.6 | |
| 20260504225518 | 55 | 0.0 | 0.0 | 0.00 | 0.00 | 0.00 | 93 | 1028.6 | |
| 20260504224518 | 55 | 0.0 | 2.0 | 0.00 | 0.00 | 0.00 | 93 | 1028.5 | |
| 20260504223519 | 55 | 0.0 | 0.0 | 0.00 | 0.00 | 0.00 | 93 | 1028.2 | |
| 20260504222518 | 55 | 0.0 | 1.0 | 0.00 | 0.00 | 0.00 | 93 | 1028.2 | |
| 20260504221518 | 55 | 0.0 | 0.0 | 0.00 | 0.00 | 0.00 | 93 | 1028.2 | |
| 20260504220518 | 55 | 0.0 | 1.0 | 0.00 | 0.00 | 0.00 | 93 | 1028.2 | |
| 20260504215518 | 54 | 0.0 | 1.0 | 0.00 | 0.00 | 0.00 | 93 | 1028.3 | |
| 20260504214518 | 54 | 0.0 | 0.0 | 0.00 | 0.01 | 0.00 | 93 | 1028.2 | |
| 20260504213518 | 54 | 0.0 | 0.0 | 0.00 | 0.01 | 0.00 | 93 | 1028.2 | |
| 20260504212518 | 54 | 0.0 | 0.0 | 0.00 | 0.02 | 0.00 | 93 | 1028.3 | |
| 20260504211518 | 54 | 0.0 | 0.0 | 0.00 | 0.02 | 0.00 | 93 | 1028.2 | |
| 20260504210518 | 54 | 0.0 | 0.0 | 0.00 | 0.02 | 0.00 | 93 | 1028.2 | |
| 20260504205538 | 54 | 0.0 | 0.0 | 0.00 | 0.02 | 0.00 | 93 | 1028.2 | |
| 20260504204518 | 54 | 0.0 | 0.0 | 0.00 | 0.02 | 0.00 | 93 | 1028.1 | |
| 20260504203518 | 55 | 0.0 | 0.0 | 0.00 | 0.02 | 0.00 | 93 | 1028.0 | |
| 20260504202518 | 55 | 0.0 | 0.0 | 0.00 | 0.02 | 0.00 | 93 | 1027.8 | |
| 20260504201518 | 55 | 0.0 | 1.0 | 0.00 | 0.02 | 0.00 | 93 | 1027.8 | |
| 20260504200518 | 55 | 0.0 | 0.0 | 0.00 | 0.02 | 0.00 | 93 | 1027.8 | |
| 20260504195518 | 55 | 0.0 | 0.0 | 0.00 | 0.02 | 0.00 | 93 | 1027.9 | |
| 20260504194538 | 55 | 0.0 | 1.0 | 0.00 | 0.02 | 0.00 | 93 | 1027.9 | |
| 20260504193538 | 54 | 0.0 | 0.0 | 0.00 | 0.02 | 0.00 | 93 | 1027.9 | |
| 20260504192518 | 54 | 0.0 | 0.0 | 0.00 | 0.02 | 0.00 | 93 | 1027.9 | |
| 20260504191518 | 54 | 0.0 | 0.0 | 0.00 | 0.02 | 0.00 | 93 | 1028.0 | |
| 20260504190517 | 54 | 0.0 | 0.0 | 0.00 | 0.02 | 0.00 | 93 | 1028.0 | |
| 20260504185518 | 54 | 0.0 | 0.0 | 0.00 | 0.02 | 0.00 | 93 | 1028.0 | |
| 20260504184518 | 54 | 0.0 | 0.0 | 0.00 | 0.02 | 0.00 | 93 | 1027.9 | |
| 20260504183517 | 54 | 0.0 | 0.0 | 0.00 | 0.03 | 0.00 | 93 | 1028.0 | |
| 20260504182537 | 54 | 0.0 | 0.0 | 0.00 | 0.03 | 0.00 | 93 | 1028.0 | |
| 20260504181517 | 53 | 0.0 | 0.0 | 0.00 | 0.03 | 0.00 | 93 | 1027.9 | |
| 20260504180518 | 53 | 0.0 | 0.0 | 0.00 | 0.03 | 0.00 | 92 | 1027.9 | |
| 20260504175537 | 53 | 0.0 | 0.0 | 0.00 | 0.03 | 0.00 | 92 | 1028.0 | |
| 20260504174517 | 53 | 0.0 | 0.0 | 0.00 | 0.03 | 0.00 | 92 | 1028.0 | |
| 20260504173518 | 53 | 0.0 | 0.0 | 0.00 | 0.03 | 0.00 | 92 | 1028.0 | |
| 20260504172518 | 53 | 0.0 | 0.0 | 0.00 | 0.03 | 0.00 | 92 | 1028.1 | |
| 20260504171517 | 53 | 0.0 | 0.0 | 0.00 | 0.03 | 0.00 | 92 | 1028.0 | |
| 20260504170517 | 53 | 0.0 | 0.0 | 0.00 | 0.03 | 0.00 | 92 | 1028.1 | |
| 20260504150517 | 55 | 0.0 | 0.0 | 0.00 | 0.03 | 0.03 | 90 | 1028.6 | |
| 20260504140517 | 57 | 0.0 | 0.0 | 0.00 | 0.04 | 0.03 | 90 | 1028.8 |